Scottsboro, AL

12:52 PM CDT on May 20, 2018 (GMT -0500)
Scottsboro

Weather History for K4A6 - January, 2012

Change the Weather History Date:

Friday, January 27, 2012

  Actual Average (KHSV) Record (KHSV)
Temperature  
Mean Temperature 47 °F -  
Max Temperature 55 °F 48 °F 74 °F (1944)
Min Temperature 37 °F 29 °F -7 °F (1940)
Degree Days  
Heating Degree Days 18    
Moisture  
Dew Point 38 °F    
Average Humidity 73    
Maximum Humidity 94    
Minimum Humidity 50    
Precipitation  
Precipitation 0.00 in - - ()
Sea Level Pressure  
Sea Level Pressure 29.96 in    
Wind  
Wind Speed 8 mph (WNW)    
Max Wind Speed 14 mph    
Max Gust Speed 23 mph    
Visibility 10 miles    
Events Rain    
Averages and records for this station are not official NWS values.
T = Trace of Precipitation, MM = Missing Value Source: NWS Daily Summary

Daily Weather History Graph

Daily Weather History Graph

Search for Another Location

Airport or City:

Astronomy

Jan. 27, 2012 Rise Set
Actual Time 6:45 AM CST 5:07 PM CST
Civil Twilight 6:19 AM CST 5:34 PM CST
Nautical Twilight 5:48 AM CST 6:05 PM CST
Astronomical Twilight 5:18 AM CST 6:34 PM CST
Moon 8:54 AM CST (1/27) 9:43 PM CST (1/27)
Length of Visible Light 11h 15m
Length of Day
10h 21m
Waxing Crescent, 20% of the Moon is Illuminated
Jan 27
Waxing Crescent
Jan 30
First Quarter
Feb 7
Full
Feb 14
Last Quarter
Feb 21
New

Hourly Weather History & Observations

Time (CST) Temp. Windchill Dew Point Humidity Pressure Visibility Wind Dir Wind Speed Gust Speed Precip Events Conditions
12:15 AM 55.4 °F - 50.0 °F 82% 29.73 in 10.0 mi West 9.2 mph - N/A   Overcast
12:35 AM 55.4 °F - 50.0 °F 82% 29.73 in 10.0 mi West 11.5 mph - N/A   Mostly Cloudy
12:55 AM 53.6 °F - 48.2 °F 82% 29.74 in 10.0 mi WNW 8.1 mph - N/A   Overcast
1:15 AM 53.6 °F - 48.2 °F 82% 29.74 in 10.0 mi West 9.2 mph - N/A   Overcast
1:35 AM 53.6 °F - 48.2 °F 82% 29.75 in 10.0 mi West 11.5 mph 16.1 mph N/A   Overcast
1:55 AM 50.0 °F - 48.2 °F 94% 29.76 in 5.0 mi West 11.5 mph 16.1 mph N/A   Overcast
2:15 AM 50.0 °F - 46.4 °F 87% 29.78 in 9.0 mi West 9.2 mph - N/A   Overcast
2:35 AM 48.2 °F - 44.6 °F 87% 29.79 in 10.0 mi West 13.8 mph 21.9 mph N/A Rain Light Rain
2:55 AM 48.2 °F - 44.6 °F 87% 29.81 in 9.0 mi West 11.5 mph 16.1 mph N/A   Overcast
3:15 AM 46.4 °F 42.4 °F 44.6 °F 93% 29.81 in 5.0 mi West 8.1 mph - N/A   Overcast
3:35 AM 46.4 °F 41.5 °F 41.0 °F 81% 29.82 in 10.0 mi NW 10.4 mph 20.7 mph N/A   Overcast
3:55 AM 46.4 °F 41.9 °F 41.0 °F 81% 29.83 in 10.0 mi WNW 9.2 mph 18.4 mph N/A   Overcast
4:15 AM 44.6 °F 38.4 °F 41.0 °F 87% 29.85 in 10.0 mi WNW 12.7 mph 23.0 mph N/A   Overcast
4:35 AM 44.6 °F 39.7 °F 39.2 °F 81% 29.85 in 10.0 mi WNW 9.2 mph 20.7 mph N/A   Overcast
4:55 AM 44.6 °F 39.7 °F 39.2 °F 81% 29.87 in 10.0 mi WNW 9.2 mph - N/A   Overcast
5:15 AM 44.6 °F 38.8 °F 39.2 °F 81% 29.89 in 10.0 mi WNW 11.5 mph 17.3 mph N/A   Overcast
5:55 AM 44.6 °F 40.2 °F 39.2 °F 81% 29.91 in 10.0 mi NNW 8.1 mph - N/A   Overcast
6:15 AM 44.6 °F 43.1 °F 39.2 °F 81% 29.93 in 10.0 mi NW 3.5 mph - N/A   Overcast
6:35 AM 44.6 °F 41.4 °F 39.2 °F 81% 29.94 in 10.0 mi NW 5.8 mph - N/A   Overcast
6:55 AM 44.6 °F 40.7 °F 37.4 °F 76% 29.94 in 10.0 mi NW 6.9 mph - N/A   Overcast
7:15 AM 44.6 °F 41.4 °F 37.4 °F 76% 29.95 in 10.0 mi NW 5.8 mph - N/A   Overcast
7:35 AM 44.6 °F 43.1 °F 37.4 °F 76% 29.96 in 10.0 mi NNW 3.5 mph - N/A   Overcast
7:55 AM 44.6 °F 41.4 °F 37.4 °F 76% 29.97 in 10.0 mi NNW 5.8 mph - N/A   Overcast
8:15 AM 44.6 °F 40.2 °F 37.4 °F 76% 29.98 in 10.0 mi NNW 8.1 mph - N/A   Overcast
8:35 AM 44.6 °F 38.8 °F 35.6 °F 71% 29.99 in 10.0 mi NNW 11.5 mph - N/A   Mostly Cloudy
8:55 AM 44.6 °F 40.7 °F 35.6 °F 71% 29.99 in 10.0 mi NNW 6.9 mph 16.1 mph N/A   Mostly Cloudy
9:15 AM 44.6 °F 41.4 °F 35.6 °F 71% 30.00 in 10.0 mi NNW 5.8 mph - N/A   Mostly Cloudy
10:55 AM 48.2 °F - 35.6 °F 62% 30.03 in 10.0 mi NW 4.6 mph - N/A   Scattered Clouds
11:15 AM 48.2 °F - 33.8 °F 58% 30.03 in 10.0 mi NW 5.8 mph - N/A   Mostly Cloudy
11:35 AM 48.2 °F - 33.8 °F 58% 30.03 in 10.0 mi WNW 4.6 mph - N/A   Mostly Cloudy
12:15 PM 50.0 °F - 35.6 °F 58% 30.02 in 10.0 mi Calm Calm - N/A   Mostly Cloudy
12:35 PM 50.0 °F - 35.6 °F 58% 30.03 in 10.0 mi West 6.9 mph - N/A   Scattered Clouds
12:55 PM 50.0 °F - 35.6 °F 58% 30.02 in 10.0 mi SW 10.4 mph - N/A   Partly Cloudy
1:15 PM 50.0 °F - 33.8 °F 54% 30.02 in 10.0 mi WNW 5.8 mph - N/A   Partly Cloudy
1:35 PM 50.0 °F - 33.8 °F 54% 30.02 in 10.0 mi West 6.9 mph - N/A   Clear
1:55 PM 51.8 °F - 33.8 °F 50% 30.03 in 10.0 mi WSW 11.5 mph - N/A   Clear
2:15 PM 51.8 °F - 33.8 °F 50% 30.04 in 10.0 mi WNW 5.8 mph - N/A   Clear
2:35 PM 51.8 °F - 33.8 °F 50% 30.04 in 10.0 mi West 5.8 mph - N/A   Clear
2:55 PM 51.8 °F - 35.6 °F 54% 30.05 in 10.0 mi NW 10.4 mph - N/A   Clear
3:15 PM 51.8 °F - 33.8 °F 50% 30.05 in 10.0 mi West 5.8 mph - N/A   Clear
3:35 PM 51.8 °F - 33.8 °F 50% 30.04 in 10.0 mi WNW 4.6 mph - N/A   Clear
3:55 PM 51.8 °F - 35.6 °F 54% 30.05 in 10.0 mi WNW 4.6 mph - N/A   Clear
4:15 PM 51.8 °F - 33.8 °F 50% 30.05 in 10.0 mi WSW 5.8 mph - N/A   Clear
4:35 PM 51.8 °F - 35.6 °F 54% 30.05 in 10.0 mi Calm Calm - N/A   Clear
4:55 PM 50.0 °F - 35.6 °F 58% 30.06 in 10.0 mi Calm Calm - N/A   Clear
5:15 PM 48.2 °F - 37.4 °F 66% 30.07 in 10.0 mi West 4.6 mph - N/A   Clear
5:35 PM 48.2 °F - 35.6 °F 62% 30.07 in 10.0 mi Calm Calm - N/A   Partly Cloudy
5:55 PM 44.6 °F - 37.4 °F 76% 30.08 in 10.0 mi Calm Calm - N/A   Scattered Clouds
6:15 PM 44.6 °F - 37.4 °F 76% 30.08 in 10.0 mi Calm Calm - N/A   Scattered Clouds
6:35 PM 44.6 °F - 37.4 °F 76% 30.07 in 7.0 mi Calm Calm - N/A   Partly Cloudy
6:55 PM 41.0 °F - 37.4 °F 87% 30.07 in 10.0 mi Calm Calm - N/A   Clear
7:15 PM 41.0 °F - 37.4 °F 87% 30.07 in 10.0 mi Calm Calm - N/A   Partly Cloudy
7:35 PM 39.2 °F - 37.4 °F 93% 30.07 in 10.0 mi Calm Calm - N/A   Clear
7:55 PM 39.2 °F - 37.4 °F 93% 30.07 in 10.0 mi Calm Calm - N/A   Clear
8:15 PM 39.2 °F - 37.4 °F 93% 30.07 in 10.0 mi Calm Calm - N/A   Clear
8:35 PM 39.2 °F - 37.4 °F 93% 30.07 in 10.0 mi Calm Calm - N/A   Clear
8:55 PM 37.4 °F - 35.6 °F 93% 30.07 in 10.0 mi Calm Calm - N/A   Clear
9:15 PM 37.4 °F - 35.6 °F 93% 30.07 in 10.0 mi Calm Calm - N/A   Clear
9:35 PM 37.4 °F - 35.6 °F 93% 30.06 in 10.0 mi Calm Calm - N/A   Clear
9:55 PM 37.4 °F - 35.6 °F 93% 30.06 in 10.0 mi Calm Calm - N/A   Clear
10:15 PM 37.4 °F - 35.6 °F 93% 30.07 in 10.0 mi Calm Calm - N/A   Clear
10:35 PM 37.4 °F - 35.6 °F 93% 30.07 in 9.0 mi Calm Calm - N/A   Clear
11:15 PM 35.6 °F - 33.8 °F 93% 30.08 in 10.0 mi Calm Calm - N/A   Clear
11:35 PM 35.6 °F - 33.8 °F 93% 30.08 in 9.0 mi Calm Calm - N/A   Clear
11:55 PM 35.6 °F - 32.0 °F 87% 30.08 in 10.0 mi Calm Calm - N/A   Clear